Location: Feigenhofen
(48.4939°N, 10.7793°E)
Time: 16:46:14
(UTC+00:00)

Gblst 52 Del rocket - Pass Details

Date: 26 May 2022
Orbit: 805 x 1365 km, 51.5° (Epoch: 28 June)

Event Time Altitude Azimuth Distance (km) Brightness Sun altitude
Rises 01:51:29 0° 284° (WNW) 3,511 7.2 -12.0°
Reaches altitude 10° 01:54:08 10° 287° (WNW) 2,510 6.5 -11.7°
Maximum altitude 01:59:53 71° 11° (NNE) 865 4.5 -11.2°
Drops below altitude 10° 02:05:22 10° 97° (E) 2,384 7.0 -10.6°
Sets 02:07:49 0° 99° (E) 3,323 7.8 -10.3°
